User: anonymous   Login
Location: Unspecified
(0.0000°N, 0.0000°E)
Time: 02:51:42
(UTC+00:00)
Language:

ADEOS II - Orbit

View from above orbital plane
View from above orbital plane
View from above satellite
View from above satellite

Ground track
Ground track

The orbit data is extracted from the following two-line orbital elements,

1 27597U 02056A   17232.89702220  .00000039  00000-0  32726-4 0  9994
2 27597  98.3753 199.7307 0001964 107.9627 252.1768 14.27298596764657
Epoch (UTC): 20 August 2017 21:31:42
Eccentricity: 0.0001964
inclination: 98.3753°
perigee height: 799 km
apogee height: 802 km
right ascension of ascending node: 199.7307°
argument of perigee: 107.9627°
revolutions per day: 14.27298596
mean anomaly at epoch: 252.1768°
orbit number at epoch: 76465

The dashed part of the orbit path shows where the satellite is in the earth's shadow,  

DLR